FW3937 Weather Reports


Display with metric or nautical units.
time (UTC)temp
F
wind
direction
speed
MPH
gust
MPH
rain 1hr
in
rain 24hr
in
rain mn
in
humidity
%
barometer
mb
20260508202022 73 334 5.0 9.0 0.00 0.00 0.00 26 1018.0
20260508201035 73 310 5.0 10.0 0.00 0.00 0.00 26 1017.9
20260508200028 72 279 3.0 5.0 0.00 0.00 0.00 26 1018.1
20260508195022 71 257 4.0 10.0 0.00 0.00 0.00 28 1018.1
20260508194017 70 250 7.0 14.0 0.00 0.00 0.00 28 1018.2
20260508193030 70 303 4.0 9.0 0.00 0.00 0.00 29 1018.2
20260508192024 70 271 4.0 8.0 0.00 0.00 0.00 30 1018.4
20260508191018 71 239 5.0 13.0 0.00 0.00 0.00 30 1018.3
20260508190032 69 270 5.0 11.0 0.00 0.00 0.00 31 1018.5
20260508185026 71 298 4.0 12.0 0.00 0.00 0.00 30 1018.6
20260508184100 69 161 2.0 4.0 0.00 0.00 0.00 30 1018.7
20260508183035 69 255 5.0 13.0 0.00 0.00 0.00 30 1018.8
20260508182029 69 293 2.0 4.0 0.00 0.00 0.00 30 1018.8
20260508181023 69 219 4.0 10.0 0.00 0.00 0.00 29 1018.8
20260508180017 69 229 5.0 11.0 0.00 0.00 0.00 29 1018.8
20260508175031 68 216 3.0 14.0 0.00 0.00 0.00 34 1018.9
20260508174025 67 260 3.0 8.0 0.00 0.00 0.00 36 1019.0
20260508173019 66 205 3.0 9.0 0.00 0.00 0.00 36 1019.0
20260508172033 67 225 4.0 9.0 0.00 0.00 0.00 36 1018.9
20260508171027 67 274 3.0 6.0 0.00 0.00 0.00 36 1018.9
20260508170020 67 233 4.0 9.0 0.00 0.00 0.00 35 1018.9
20260508165035 67 237 3.0 7.0 0.00 0.00 0.00 33 1018.8
20260508164028 66 233 3.0 7.0 0.00 0.00 0.00 34 1018.8
20260508163022 66 218 4.0 10.0 0.00 0.00 0.00 35 1018.6
20260508162016 65 221 3.0 7.0 0.00 0.00 0.00 38 1018.6
20260508161030 64 206 2.0 7.0 0.00 0.00 0.00 39 1018.6
20260508160024 64 212 3.0 8.0 0.00 0.00 0.00 39 1018.5
20260508155018 63 203 2.0 5.0 0.00 0.00 0.00 38 1018.5
20260508154032 64 206 2.0 6.0 0.00 0.00 0.00 38 1018.5
20260508153025 65 203 1.0 2.0 0.00 0.00 0.00 36 1018.5
20260508152020 63 176 1.0 4.0 0.00 0.00 0.00 37 1018.3
20260508151035 64 131 0.0 2.0 0.00 0.00 0.00 37 1018.2
20260508150029 63 76 1.0 3.0 0.00 0.00 0.00 40 1018.3
20260508145022 61 39 2.0 3.0 0.00 0.00 0.00 43 1018.2
20260508144016 59 314 0.0 1.0 0.00 0.00 0.00 49 1018.2
20260508143029 60 67 2.0 3.0 0.00 0.00 0.00 48 1018.1
20260508142023 57 80 1.0 1.0 0.00 0.00 0.00 51 1018.1
20260508141016 57 57 1.0 2.0 0.00 0.00 0.00 48 1017.9
20260508140030 57 79 1.0 2.0 0.00 0.00 0.00 49 1017.9
20260508135024 55 78 1.0 2.0 0.00 0.00 0.00 51 1017.8
20260508134017 54 119 1.0 2.0 0.00 0.00 0.00 50 1017.6
20260508133031 55 66 2.0 3.0 0.00 0.00 0.00 46 1017.5
20260508132024 54 54 2.0 3.0 0.00 0.00 0.00 47 1017.4
20260508131058 54 59 3.0 3.0 0.00 0.00 0.00 46 1017.3
20260508130112 54 63 3.0 3.0 0.00 0.00 0.00 45 1017.2
20260508125027 54 66 3.0 4.0 0.00 0.00 0.00 43 1017.1
20260508124101 54 56 2.0 3.0 0.00 0.00 0.00 44 1017.0
20260508123035 54 65 3.0 3.0 0.00 0.00 0.00 45 1016.9
20260508122030 54 81 3.0 4.0 0.00 0.00 0.00 45 1016.8
20260508121023 55 74 3.0 3.0 0.00 0.00 0.00 43 1016.8
20260508120018 55 76 3.0 4.0 0.00 0.00 0.00 43 1016.7
20260508115031 55 82 3.0 3.0 0.00 0.00 0.00 44 1016.7
20260508114024 55 75 2.0 3.0 0.00 0.00 0.00 46 1016.6
20260508113018 55 68 3.0 3.0 0.00 0.00 0.00 46 1016.6
20260508112032 55 71 3.0 3.0 0.00 0.00 0.00 47 1016.6
20260508111025 55 71 3.0 4.0 0.00 0.00 0.00 46 1016.6
20260508110019 56 77 3.0 4.0 0.00 0.00 0.00 46 1016.6
20260508105034 55 77 3.0 6.0 0.00 0.00 0.00 48 1016.6
20260508104027 55 68 3.0 3.0 0.00 0.00 0.00 49 1016.4
20260508103021 55 67 2.0 3.0 0.00 0.00 0.00 49 1016.5
20260508102035 54 69 3.0 3.0 0.00 0.00 0.00 49 1016.4
20260508101028 54 63 3.0 3.0 0.00 0.00 0.00 49 1016.4
20260508100021 54 63 2.0 3.0 0.00 0.00 0.00 50 1016.3
20260508095016 54 64 2.0 3.0 0.00 0.00 0.00 50 1016.2
20260508094029 55 79 2.0 3.0 0.00 0.00 0.00 51 1016.2
20260508093022 56 99 2.0 4.0 0.00 0.00 0.00 48 1016.2
20260508092015 55 100 2.0 3.0 0.00 0.00 0.00 50 1016.1
20260508091029 56 65 3.0 3.0 0.00 0.00 0.00 47 1015.9
20260508090057 55 77 3.0 4.0 0.00 0.00 0.00 50 1015.9
20260508085026 55 82 2.0 3.0 0.00 0.00 0.00 49 1016.1
20260508084019 55 82 2.0 2.0 0.00 0.00 0.00 48 1016.2
20260508083033 56 72 2.0 3.0 0.00 0.00 0.00 48 1016.1
20260508082028 57 57 2.0 3.0 0.00 0.00 0.00 46 1016.1
20260508081018 57 77 2.0 3.0 0.00 0.00 0.00 44 1016.1
20260508080029 58 72 3.0 4.0 0.00 0.00 0.00 44 1016.1
20260508075020 58 55 3.0 4.0 0.00 0.00 0.00 43 1016.1
20260508074033 58 43 3.0 4.0 0.00 0.00 0.00 43 1016.1
20260508073024 58 49 3.0 4.0 0.00 0.00 0.00 44 1016.1
20260508072106 58 47 3.0 4.0 0.00 0.00 0.00 44 1016.0
20260508071028 58 43 3.0 4.0 0.00 0.00 0.00 44 1016.0
20260508070020 58 48 3.0 4.0 0.00 0.00 0.00 44 1015.9
20260508065032 59 70 3.0 4.0 0.00 0.00 0.00 43 1015.9
20260508064144 60 71 3.0 4.0 0.00 0.00 0.00 40 1015.9
20260508063018 59 74 2.0 4.0 0.00 0.00 0.00 42 1015.8
20260508062032 59 64 2.0 2.0 0.00 0.00 0.00 42 1015.8
20260508061027 59 73 2.0 3.0 0.00 0.00 0.00 42 1015.7
20260508060020 60 60 1.0 3.0 0.00 0.00 0.00 42 1015.7
20260508055033 60 60 4.0 4.0 0.00 0.00 0.00 40 1015.6
20260508054023 60 60 4.0 5.0 0.00 0.00 0.00 40 1015.5
20260508053058 60 45 3.0 4.0 0.00 0.00 0.00 39 1015.5
20260508052112 60 48 4.0 4.0 0.00 0.00 0.00 40 1015.4
20260508051026 60 31 3.0 4.0 0.00 0.00 0.00 40 1015.5
20260508050020 60 40 3.0 4.0 0.00 0.00 0.00 40 1015.4
20260508045113 61 30 3.0 4.0 0.00 0.00 0.00 39 1015.4
20260508044027 61 30 3.0 4.0 0.00 0.00 0.00 39 1015.5
20260508043021 61 32 3.0 4.0 0.00 0.00 0.00 39 1015.4
20260508042015 62 60 4.0 5.0 0.00 0.00 0.00 38 1015.5
20260508041030 61 61 4.0 5.0 0.00 0.00 0.00 39 1015.3
20260508040023 62 46 3.0 4.0 0.00 0.00 0.00 39 1015.2
20260508035016 62 30 3.0 4.0 0.00 0.00 0.00 39 1015.2
20260508034030 62 49 3.0 5.0 0.00 0.00 0.00 39 1015.2
20260508033024 62 39 3.0 4.0 0.00 0.00 0.00 38 1015.2
20260508032018 63 46 4.0 5.0 0.00 0.00 0.00 38 1015.0
20260508031031 63 49 4.0 4.0 0.00 0.00 0.00 38 1014.8
20260508030025 63 33 3.0 4.0 0.00 0.00 0.00 38 1014.9
20260508025019 64 32 4.0 4.0 0.00 0.00 0.00 37 1014.9
20260508024033 65 43 3.0 4.0 0.00 0.00 0.00 37 1014.8
20260508023027 68 43 3.0 4.0 0.00 0.00 0.00 34 1014.8
20260508022101 69 53 2.0 3.0 0.00 0.00 0.00 32 1014.8
20260508021035 73 40 1.0 2.0 0.00 0.00 0.00 29 1014.5
20260508020029 74 118 0.0 1.0 0.00 0.00 0.00 28 1014.7
20260508015022 74 0.0 2.0 0.00 0.00 0.00 27 1014.7
20260508014016 75 302 0.0 2.0 0.00 0.00 0.00 26 1014.7
20260508013030 74 280 2.0 5.0 0.00 0.00 0.00 26 1014.7
20260508012023 75 292 1.0 4.0 0.00 0.00 0.00 26 1014.7
20260508011016 75 273 2.0 5.0 0.00 0.00 0.00 26 1014.8
20260508010030 75 299 2.0 6.0 0.00 0.00 0.00 26 1014.8
20260508005022 75 256 3.0 5.0 0.00 0.00 0.00 26 1014.7
20260508004016 75 273 3.0 6.0 0.00 0.00 0.00 25 1014.9
20260508003028 76 280 2.0 4.0 0.00 0.00 0.00 25 1015.0
20260508002022 74 7 2.0 4.0 0.00 0.00 0.00 26 1015.1
20260508001035 76 268 3.0 8.0 0.00 0.00 0.00 26 1015.1
20260508000033 72 98 1.0 3.0 0.00 0.00 0.00 27 1015.2
20260507235022 72 157 1.0 3.0 0.00 0.00 0.00 27 1015.3
20260507234016 73 272 1.0 7.0 0.00 0.00 0.00 28 1015.4
20260507233030 72 22 1.0 3.0 0.00 0.00 0.00 28 1015.5
20260507232023 72 232 3.0 7.0 0.00 0.00 0.00 27 1015.6
20260507231017 74 330 2.0 5.0 0.00 0.00 0.00 26 1015.7
20260507230031 73 288 2.0 5.0 0.00 0.00 0.00 27 1015.9
20260507225025 72 360 1.0 3.0 0.00 0.00 0.00 28 1016.2
20260507224020 73 247 2.0 7.0 0.00 0.00 0.00 29 1016.2
20260507223034 72 287 1.0 3.0 0.00 0.00 0.00 28 1016.5
20260507222029 72 298 3.0 9.0 0.00 0.00 0.00 29 1016.5
20260507221023 71 262 3.0 11.0 0.00 0.00 0.00 28 1016.7
20260507220017 71 272 1.0 6.0 0.00 0.00 0.00 29 1016.7
20260507215031 71 271 4.0 10.0 0.00 0.00 0.00 28 1016.9
20260507214027 71 256 3.0 9.0 0.00 0.00 0.00 28 1017.0
20260507213020 72 252 3.0 6.0 0.00 0.00 0.00 28 1017.2
20260507212035 72 287 3.0 7.0 0.00 0.00 0.00 28 1017.3
20260507211028 71 283 4.0 9.0 0.00 0.00 0.00 27 1017.4
20260507205018 70 241 4.0 11.0 0.00 0.00 0.00 26 1017.6
20260507204032 70 19 1.0 4.0 0.00 0.00 0.00 26 1017.8
20260507203046 70 269 2.0 6.0 0.00 0.00 0.00 26 1017.8